Regional Weather Roundup
Issued by NWS

Home | Current Version | Previous Version | Text Only | Print | Product List | Glossary Off
Versions: 1 2 3 4 5 6 7 8 9 10 11 12 13 14 15 16 17 18 19 20 21 22 23 24 25 26 27 28 29 30 31 32 33 34 35 36 37 38 39 40 41 42 43 44 45 46 47 48 49 50

000
ASUS43 KFSD 262110
RWRSD

WEATHER ROUNDUP FOR SOUTH DAKOTA
NATIONAL WEATHER SERVICE SIOUX FALLS SD
300 PM CST WED NOV 26 2014

NOTE: "FAIR" INDICATES FEW OR NO CLOUDS BELOW 12,000 FEET WITH NO
SIGNIFICANT WEATHER AND/OR OBSTRUCTIONS TO VISIBILITY.


SDZ001>005-009-010-012>017-262200-
NORTHWEST AND NORTH CENTRAL SOUTH DAKOTA

CITY           SKY/WX    TMP DP  RH WIND       PRES   REMARKS
BUFFALO          N/A     28  21  75 NE9       30.17R WCI  19
FAITH            N/A     28  23  81 SW8       30.25S WCI  20
MOBRIDGE       CLOUDY    14   7  73 N6        30.34S WCI   5
$$

SDZ012>016-024>037-041>051-057-063-072>074-262200-
SOUTHWEST AND SOUTH CENTRAL SOUTH DAKOTA

CITY           SKY/WX    TMP DP  RH WIND       PRES   REMARKS
RAPID CTY ARPT CLOUDY    31  23  72 S3        30.23R
PIERRE         CLOUDY    21  13  71 NE7       30.33S WCI  12
CUSTER         CLOUDY    28  18  66 W8        30.12R WCI  20
ELLSWORTH AFB  CLOUDY    31  24  74 CALM      30.22R
PHILIP         CLOUDY    29  20  69 SW6       30.29S WCI  23
PINE RIDGE     CLOUDY    30  22  72 CALM      30.24R
SPEARFISH      CLOUDY    28  25  86 NW5       30.21R WCI  23
WINNER         FAIR      25  15  66 NW5       30.32S WCI  19
$$

SDZ004>011-016>023-039-040-262200-
NORTHEAST SOUTH DAKOTA

CITY           SKY/WX    TMP DP  RH WIND       PRES   REMARKS
ABERDEEN       PTSUNNY    8  -1  66 N14       30.41R WCI  -8
WATERTOWN      CLOUDY    11   2  67 N14       30.31R WCI  -5
SISSETON         N/A      7  -2  66 N20       30.38R WCI -13
$$

SDZ017-020-022-023-036>040-048>070-262200-
SOUTHEAST SOUTH DAKOTA

CITY           SKY/WX    TMP DP  RH WIND       PRES   REMARKS
SIOUX FALLS    FLURRIES  18  12  77 N20       30.30R WCI   2
HURON          PTSUNNY   12   4  70 N14       30.39R WCI  -3
CHAMBERLAIN    PTSUNNY   20   8  60 NW3       30.35R
MITCHELL       SUNNY     16   8  71 N15       30.37R WCI   1
YANKTON        CLOUDY    19  12  73 NW23      30.34R WCI   2
$$

ABBREVIATIONS USED IN REMARKS
   TC - TEMPERATURE IN CELSIUS
  WCI - WIND CHILL INDEX
   HX - HEAT INDEX
  VSB - VISIBILITY



USA.gov is the U.S. government's official web portal to all federal, state and local government web resources and services.